Regional Weather Roundup
Issued by NWS

Home | Current Version | Previous Version | Text Only | Print | Product List | Glossary On
Versions: 1 2 3 4 5 6 7 8 9 10 11 12 13 14 15 16 17 18 19 20 21 22 23 24 25 26 27 28 29 30 31 32 33 34 35 36 37 38 39 40 41 42 43 44 45 46 47 48 49 50
000
ASUS44 KOUN 271300
RWROK

WEATHER ROUNDUP FOR OKLAHOMA
NATIONAL WEATHER SERVICE NORMAN OK
700 AM CST MON FEB 27 2017

NOTE: "FAIR" INDICATES FEW OR NO CLOUDS BELOW 12,000 FEET WITH NO
      SIGNIFICANT WEATHER AND/OR OBSTRUCTIONS TO VISIBILITY.

OKZ001>007-009>012-014-015-017-271400-
NORTHWEST OKLAHOMA AND THE PANHANDLE

CITY           SKY/WX    TMP DP  RH WIND       PRES   REMARKS
GAGE           CLEAR     39  31  72 S12       29.85F WCI  32
GUYMON         CLOUDY    22  14  71 SW8       29.81S WCI  12
ENID/WOODRING  CLOUDY    39  36  87 E6        29.92S WCI  35
$$

OKZ016-021>023-033>039-044-045-271400-
SOUTHWEST OKLAHOMA

CITY           SKY/WX    TMP DP  RH WIND       PRES   REMARKS
FREDERICK      FOG       49  48  97 E3        29.87R VSB 1/2
CLINTON        CLOUDY    41  36  82 S3        29.90S HAZE
HOBART         CLOUDY    42  40  92 N3        29.90S FOG
ALTUS AFB      CLOUDY    47  45  91 NW3       29.90R FOG
$$

OKZ018>020-024>031-271400-
CENTRAL OKLAHOMA

CITY           SKY/WX    TMP DP  RH WIND       PRES   REMARKS
OKLAHOMA CITY  CLOUDY    47  44  90 SE7       29.91S FOG
OKC/WILEY POST CLOUDY    48  46  93 SE8       29.92R FOG
OKC/TINKER AFB CLOUDY    48  44  88 SE8       29.90S
STILLWATER     CLOUDY    43  35  73 E7        29.94F
GUTHRIE        CLOUDY    45  40  82 SE10      29.93S
$$

OKZ008-013-054>072-271400-
NORTHEAST OKLAHOMA

CITY           SKY/WX    TMP DP  RH WIND       PRES   REMARKS
TULSA          CLOUDY    35  34  96 CALM      29.98S
TULSA/JONES    CLOUDY    40  36  86 CALM      29.98S
PONCA CITY     MOCLDY    41  32  70 E9        29.95F
BARTLESVILLE   PTCLDY    27  24  89 CALM      30.02R
MUSKOGEE       MOCLDY    45  37  73 SE8       30.01R
$$

OKZ032-040>043-046>053-073>077-271400-
SOUTH CENTRAL/SOUTHEAST OKLAHOMA

CITY           SKY/WX    TMP DP  RH WIND       PRES   REMARKS
MCALESTER      CLOUDY    52  40  63 E7        29.97S
$$





USA.gov is the U.S. government's official web portal to all federal, state and local government web resources and services.